Regional Weather Roundup
Issued by NWS

Home | Current Version | Previous Version | Graphics & Text | Print | Product List | Glossary On
Versions: 1 2 3 4 5 6 7 8 9 10 11 12 13 14 15 16 17 18 19 20 21 22 23 24 25 26 27 28 29 30 31 32 33 34 35 36 37 38 39 40 41 42 43 44 45 46 47 48 49 50
000
ASUS43 KOAX 212210
RWRNE

WEATHER ROUNDUP FOR NEBRASKA
NATIONAL WEATHER SERVICE OMAHA NE
400 PM CST FRI NOV 21 2014

NOTES: SATELLITE DATA IS BEING USED TO AUGMENT CLOUD COVER ABOVE
       12000 FEET.
       "FAIR" INDICATES FEW OR NO CLOUDS BELOW 12,000 FEET WITH NO
       SIGNIFICANT WEATHER AND/OR OBSTRUCTIONS TO VISIBILITY.

  * THESE STATIONS DO NOT REPORT WEATHER SUCH AS RAIN...SNOW OR FOG.

NEZ001>004-019>022-054>056-212300-
NEBRASKA PANHANDLE

CITY           SKY/WX    TMP DP  RH WIND       PRES   REMARKS
SCOTTSBLUFF    PTSUNNY   57  20  23 W16       29.86S
ALLIANCE       PTSUNNY   52  19  27 W16       29.85S
CHADRON        PTSUNNY   50  27  40 W6        29.84R
KIMBALL        SUNNY     57  15  19 W14       29.87S
SIDNEY         MOSUNNY   59  20  22 NE3       29.88F
$$

NEZ057>060-069>072-079>082-212300-
SOUTHWEST NEBRASKA

CITY           SKY/WX    TMP DP  RH WIND       PRES   REMARKS
NORTH PLATTE   MOSUNNY   55  26  32 SW10      29.90F
IMPERIAL       MOSUNNY   57  27  31 S9        29.89S
LEXINGTON      SUNNY     51  32  48 S7        29.94R
MCCOOK         SUNNY     55  32  41 S15       29.91S
OGALLALA       MOSUNNY   55  26  33 S5        29.88S
$$

NEZ005>010-023>029-035>040-094-212300-
NORTH CENTRAL NEBRASKA

CITY           SKY/WX    TMP DP  RH WIND       PRES   REMARKS
VALENTINE      PTSUNNY   51  34  52 CALM      29.83F
AINSWORTH      PTSUNNY   51  32  48 SW3       29.85S
BROKEN BOW     PTSUNNY   53  30  41 S13       29.91S
O`NEILL        CLOUDY    45  35  67 S13       29.88S
ORD            CLOUDY    49  32  52 S13       29.92R
THEDFORD       PTSUNNY   56  28  33 S9G16     29.86F
$$

NEZ041-046>049-061>064-073>077-083>087-212300-
SOUTH CENTRAL NEBRASKA

CITY           SKY/WX    TMP DP  RH WIND       PRES   REMARKS
GRAND ISLAND   PTSUNNY   48  27  44 S12       29.98S
AURORA         PTSUNNY   41  27  57 S8        29.98F
HASTINGS       MOSUNNY   48  27  44 S9        29.97F
HEBRON         CLOUDY    44  34  68 S10       30.02R
HOLDREGE       SUNNY     48  30  49 S12       29.95S
KEARNEY *      MOSUNNY   48  28  46 SE13      29.97S
YORK           PTSUNNY   39  28  65 S8        30.01S WCI  34
$$

NEZ011>018-030>034-042>045-212300-
NORTHEAST NEBRASKA

CITY           SKY/WX    TMP DP  RH WIND       PRES   REMARKS
NORFOLK        MOCLDY    36  28  73 SE10      29.97R WCI  28
ALBION         CLOUDY    40  28  60 S12       29.96S WCI  34
BLAIR          MOCLDY    38  27  63 S6        30.03F WCI  33
COLUMBUS *     MOCLDY    37  27  65 S10       30.02S WCI  30
FREMONT        MOCLDY    37  27  69 SE7       30.04S WCI  31
TEKAMAH        MOCLDY    39  26  59 S14       30.04F WCI  31
WAYNE          CLOUDY    36  28  75 S12       29.99S WCI  27
$$

NEZ050>053-065>068-078-088>093-212300-
SOUTHEAST NEBRASKA

CITY           SKY/WX    TMP DP  RH WIND       PRES   REMARKS
LINCOLN        MOCLDY    45  30  55 S12       30.04F
OMAHA EPPLEY   MOCLDY    40  26  57 S14       30.07F WCI  32
BEATRICE       CLOUDY    41  34  75 SE9       30.04S
FALLS CITY     CLOUDY    38  32  79 SE9       30.09S WCI  31
NEBRASKA CITY  CLOUDY    40  23  50 S9        30.07S WCI  33
PLATTSMOUTH    CLOUDY    39  26  59 SE10      30.06S WCI  33
$$

NEZ044-045-051>053-067-212300-
OMAHA AREA

CITY           SKY/WX    TMP DP  RH WIND       PRES   REMARKS
OMAHA EPPLEY   MOCLDY    40  26  57 S14       30.07F WCI  32
BLAIR          MOCLDY    38  27  63 S6        30.03F WCI  33
FREMONT        MOCLDY    37  27  69 SE7       30.04S WCI  31
MILLARD        MOCLDY    39  27  61 SE10      30.05F WCI  33
OFFUTT AFB     CLOUDY    40  26  59 SE10      30.06S WCI  33
PLATTSMOUTH    CLOUDY    39  26  59 SE10      30.06S WCI  33
WAHOO          FAIR      37  27  65 SE3       30.04S
$$



USA.gov is the U.S. government's official web portal to all federal, state and local government web resources and services.